Regional Weather Roundup
Issued by NWS Wilmington, NC

Home | Current Version | Previous Version | Text Only | Print | Product List | Glossary On
Versions: 1 2 3 4 5 6 7 8 9 10 11 12 13 14 15 16 17 18 19 20 21 22 23 24 25 26 27 28 29 30 31 32 33 34 35 36 37 38 39 40 41 42 43 44 45 46 47 48 49 50
000
ASUS42 KILM 280913
RWRILM
RWRILM
REGIONAL HOURLY WEATHER ROUNDUP
NATIONAL WEATHER SERVICE WILMINGTON NC
500 AM EDT THU MAY 28 2015

NOTE: "FAIR" INDICATES FEW OR NO CLOUDS BELOW 12,000 FEET WITH NO
SIGNIFICANT WEATHER AND/OR OBSTRUCTIONS TO VISIBILITY.

...............WFO WILMINGTON COUNTY WARNING AREA...............

......COASTAL NC AND SC COUNTIES......

CITY           SKY/WX    TMP DP  RH WIND       PRES   REMARKS
WILMINGTON     CLEAR     65  63  93 CALM      30.21R
N MYRTLE BEACH CLEAR     73  64  73 SE5       30.19S
MYRTLE BEACH   MOCLDY    73  64  73 SE6       30.21S

......INLAND NC AND SC COUNTIES.......

CITY           SKY/WX    TMP DP  RH WIND       PRES   REMARKS
LUMBERTON      PTCLDY    67  65  93 CALM      30.19S FOG
ELIZABETHTOWN  PTCLDY    68  68 100 CALM      30.20S
WHITEVILLE     PTCLDY    66  65  94 CALM      30.20R
FLORENCE       PTCLDY    69  67  93 CALM      30.19S
DARLINGTON     CLEAR     66  63  88 CALM      30.21R

....................REST OF NORTH CAROLINA......................

.........EASTERN NC.........

CITY           SKY/WX    TMP DP  RH WIND       PRES   REMARKS
CAPE HATTERAS  CLEAR     71  60  68 S8        30.23S
JACKSONVILLE   PTCLDY    63  59  88 CALM      30.21S
MOREHEAD CITY  PTCLDY    64  62  93 CALM      30.23R
KENANSVILLE    PTCLDY    66  65  96 CALM      30.21S
NEW BERN       MOCLDY    67  63  87 S3        30.23S
ELIZABETH CITY CLOUDY    71  65  81 S7        30.21S

.........CENTRAL NC.........

CITY           SKY/WX    TMP DP  RH WIND       PRES   REMARKS
RALEIGH DURHAM MOCLDY    69  67  93 SW5       30.19S
ROCKY MOUNT    CLEAR     68  67  96 S3        30.19F FOG
ROANOKE RAPIDS NOT AVBL
FAYETTEVILLE   MOCLDY    69  67  93 S3        30.19S
HOFFMAN        MOCLDY    67  66  97 CALM      30.23S

.........WESTERN NC.........

CITY           SKY/WX    TMP DP  RH WIND       PRES   REMARKS
CHARLOTTE      MOCLDY    68  65  90 SE3       30.20S
GREENSBORO     MOCLDY    68  67  96 SW6       30.19S
HICKORY        NOT AVBL
BOONE          NOT AVBL
ASHEVILLE      NOT AVBL

.....................REST OF SOUTH CAROLINA.....................

.........EASTERN SC.........

CITY           SKY/WX    TMP DP  RH WIND       PRES   REMARKS
CHARLESTON     CLEAR     67  66  97 CALM      30.18R
BEAUFORT MCAS  CLEAR     69  66  90 CALM      30.17S
HILTON HEAD    CLEAR     68  66  94 CALM      30.18S

.........CENTRAL SC.........

CITY           SKY/WX    TMP DP  RH WIND       PRES   REMARKS
COLUMBIA       PTCLDY    69  65  86 CALM      30.18S
ORANGEBURG     PTCLDY    65  63  93 CALM      30.19R FOG
SUMTER SHAW    CLEAR     66  66 100 CALM      30.18R FOG

.........WESTERN SC.........

CITY           SKY/WX    TMP DP  RH WIND       PRES   REMARKS
GREENVILLE     NOT AVBL
ROCK HILL      PTCLDY    66  66 100 S3        30.20S
ANDERSON       PTCLDY    66  64  93 CALM      30.18F
CLEMSON        NOT AVBL
GREENWOOD      MOCLDY    67  65  93 CALM      30.20S


...................COASTAL AND OFFSHORE REPORTS..................

................LOCAL PIERS AND NC RESERVE................


STATION/POSITION TIME  SKY/WX   TEMP    WIND        PRES    VSBY
                                AIR SEA DIR/SP/G
                 (UTC)          (F)     (DEG/KT/KT) (MB)    (MI)
JOHNY MRCER PIER 0800            74 78  180/  7/  8 1022.2F
NC RESRV MASNBRO NOT AVBL
OCEAN CREST PIER 0902            74 78   90/  9/ 10 1021.8F
SPRINGMAID  PIER 0800            74 77  130/  8/ 10 1022.3F


................COASTAL AND OFFSHORE BUOYS................


STATION/POSITION TIME  SKY/WX   TEMP    WIND        PRES    VSBY
                                AIR SEA DIR/SP/G
                 (UTC)          (F)     (DEG/KT/KT) (MB)    (MI)
DIMNDSHOAL 41025 0850            73 77  190/  8/ 10 1023.8F
WVE H/P(F/S)=  3/ 8 WND WVE H/P(F/S)=  2/ 4 SWL H/P/D(F/S/D)=  3/130/ 8

CAPE LOOKOUT     0900            73     160/  5/  7 1023.3R
ONSLOW BAY 41036 NOT AVBL
5 WRITEBCH 41038 0808            74 76  170/  6/  8 1022.8F
MASONBORO  41110 0819               77                N/A
WVE H/P(F/S)=  3/ 8 WND WVE H/P(F/S)=  3/ 8

WILM HARBR 41108 0811               77                N/A
WVE H/P(F/S)=  2/ 7 WND WVE H/P(F/S)=  2/ 7

27WRITEBCH 41037 0800               76  220/  4/  6   N/A
FRYING PAN 41013 0850            75 75  120/  6/  8 1023.2F
WVE H/P(F/S)=  3/ 7 WND WVE H/P(F/S)=  2/ 4 SWL H/P/D(F/S/D)=  3/120/ 7

SUNST NRSH 41024 0808            73     150/  6/ 10 1022.3F
CAPRS NRSH 41029 0808            76     120/  4/  6 1021.8F
EDISTO     41004 0850            76 78   90/  6/  8 1021.5R
WVE H/P(F/S)=  3/ 7 WND WVE H/P(F/S)=  2/ 4 SWL H/P/D(F/S/D)=  3/ 7



..........OFFSHORE BUOYS BEYOND 100 NM OFFSHORE...........
.....IN A TRIANGLE---HAT TO BERMUDA TO BAHAMAS TO HAT.....


STATION/POSITION TIME  SKY/WX   TEMP    WIND        PRES    VSBY
                                AIR SEA DIR/SP/G
                 (UTC)          (F)     (DEG/KT/KT) (MB)    (MI)
150E HAT   41001 NOT AVBL
W BERMUDA  41048 0850            73 74   70/ 14/ 17 1020.8S
WVE H/P(F/S)=  9/ 9 WND WVE H/P(F/S)=  5/ 5 SWL H/P/D(F/S/D)=  8/ 70/ 9

ATLANTIC S 41049 0850            75 78   50/  4/  6 1015.9R
WVE H/P(F/S)=  7/ 8 WND WVE H/P(F/S)=  2/ 4 SWL H/P/D(F/S/D)=  7/ 40/ 8

E BAHAMAS  41046 0850            76 81  250/  2/  4 1014.6R
WVE H/P(F/S)=  6/ 9 WND WVE H/P(F/S)=  2/ 4 SWL H/P/D(F/S/D)=  5/ 70/ 9

NE BAHAMAS 41047 0850            74 77   20/ 17/ 19 1016.2R
WVE H/P(F/S)=  8/ 8 WND WVE H/P(F/S)=  5/ 6 SWL H/P/D(F/S/D)=  5/ 80/ 8

120E CANVRL41010 0820            76 80   70/ 12/ 16 1020.1F

END



USA.gov is the U.S. government's official web portal to all federal, state and local government web resources and services.